EDT,Max TemperatureF,Mean TemperatureF,Min TemperatureF,Max Dew PointF,MeanDew PointF,Min DewpointF,Max Humidity, Mean Humidity, Min Humidity, Max Sea Level PressureIn, Mean Sea Level PressureIn, Min Sea Level PressureIn, Max VisibilityMiles, Mean VisibilityMiles, Min VisibilityMiles, Max Wind SpeedMPH, Mean Wind SpeedMPH, Max Gust SpeedMPH,PrecipitationIn, CloudCover, Events, WindDirDegrees
2012-8-1,85,70,54,60,57,52,100,72,43,29.93,29.88,29.77,10,8,0,17,4,23,T,3,Fog-Thunderstorm,227
2012-8-2,80,72,63,68,62,56,87,73,58,29.89,29.76,29.69,10,10,8,20,8,27,0.00,3,,289
2012-8-3,76,67,58,61,56,52,84,69,54,30.03,29.99,29.90,10,10,10,10,5,14,0.00,5,,89
2012-8-4,91,78,64,67,63,59,87,63,38,30.01,29.86,29.74,10,10,10,18,8,26,T,2,,150
2012-8-5,73,64,55,67,57,43,90,66,42,30.05,29.83,29.70,10,9,2,29,13,41,0.20,6,Rain-Thunderstorm,285
2012-8-6,82,66,50,59,52,46,83,60,36,30.07,29.99,29.88,10,10,10,18,6,23,T,1,,238
2012-8-7,77,69,61,64,60,53,93,76,59,29.96,29.89,29.83,10,9,2,18,7,26,0.28,4,Rain-Thunderstorm,285
2012-8-8,75,66,57,57,53,50,90,67,44,30.04,30.01,29.97,10,10,10,13,4,17,0.00,2,,334
2012-8-9,77,68,59,55,49,42,80,55,29,30.05,30.01,29.97,10,10,10,13,6,19,0.00,1,,76
2012-8-10,74,66,57,47,46,44,67,54,41,30.02,29.96,29.89,10,10,10,18,9,24,0.00,1,,21
2012-8-11,80,70,60,59,49,45,73,51,28,29.90,29.88,29.83,10,10,10,18,7,25,0.00,5,,4
2012-8-12,79,69,58,59,54,47,90,61,32,29.93,29.91,29.89,10,10,10,17,8,22,0.00,1,,294
2012-8-13,77,67,56,62,56,52,97,75,53,29.95,29.93,29.89,10,8,0,12,3,16,T,4,Fog-Rain,121
2012-8-14,78,67,56,60,57,53,100,73,45,29.91,29.88,29.83,10,7,0,13,5,16,T,5,Fog-Thunderstorm,307
2012-8-15,79,68,56,60,53,44,93,62,30,29.92,29.89,29.86,10,7,0,12,5,15,0.00,1,Fog,290
2012-8-16,71,64,57,66,60,49,90,79,67,29.88,29.70,29.61,10,7,1,23,8,31,0.93,7,Rain-Thunderstorm,180
2012-8-17,62,58,53,52,48,40,89,68,46,29.92,29.79,29.70,10,10,5,24,13,35,0.04,6,Rain,297
2012-8-18,72,62,51,60,53,48,86,70,53,29.92,29.90,29.88,10,9,2,16,8,22,0.14,5,Rain-Thunderstorm,276
2012-8-19,67,56,44,50,44,37,93,65,37,29.96,29.94,29.91,10,7,0,18,6,24,0.00,1,Fog,295
2012-8-20,68,57,46,57,51,42,93,78,63,29.94,29.91,29.90,10,10,2,14,5,26,0.08,4,Rain,242
2012-8-21,76,62,47,55,49,45,100,67,33,30.02,29.98,29.94,10,6,0,12,4,16,0.00,2,Fog,269
2012-8-22,81,69,56,60,54,50,93,64,35,30.01,29.98,29.95,10,10,10,21,7,26,0.00,1,,235
2012-8-23,86,72,58,62,59,56,93,67,40,30.07,30.03,30.00,10,8,2,12,5,17,T,2,,138
2012-8-24,81,73,65,67,63,60,93,74,54,30.03,30.00,29.97,10,10,7,17,6,21,0.12,6,Rain-Thunderstorm,95
2012-8-25,90,77,64,64,62,57,93,64,34,30.03,30.01,29.98,10,8,4,15,6,20,0.00,1,,120
2012-8-26,80,73,65,67,64,61,93,76,58,30.05,30.00,29.95,10,5,1,12,4,14,0.33,5,Rain,109
2012-8-27,76,70,63,65,61,54,93,71,49,30.01,29.97,29.93,10,6,0,20,8,26,0.00,4,Fog,284
2012-8-28,72,63,53,58,49,44,89,65,40,30.14,30.09,30.02,10,10,10,16,6,22,0.00,3,,321
2012-8-29,78,63,48,58,50,44,90,67,44,30.11,30.06,29.95,10,9,0,13,3,17,0.00,1,Fog,207
2012-8-30,85,72,59,64,60,56,97,73,48,29.96,29.85,29.73,10,9,2,24,10,35,0.00,1,Rain,204
2012-8-31,78,70,62,65,57,49,87,63,38,30.08,29.93,29.78,10,10,9,20,10,28,0.00,0,,305